Location: Bonny Doon Airfield
(37.0704°N, 122.1252°W)
Time: 18:31:38
(UTC-07:00)

Tiangong 1 - Pass Details

Date: 07 October 2017
Orbit: 293 x 320 km, 42.8° (Epoch: 19 October)

Event Time Altitude Azimuth Distance (km) Brightness Sun altitude
Rises 20:23:08 0° 281° (W) 2,028 6.3 -20.9°
Reaches altitude 10° 20:25:20 10° 296° (WNW) 1,194 4.6 -21.3°
Enters shadow 20:26:48 20° 326° (NW) 776 3.1 -21.6°
